Location: Terre Du Lac
(37.9120°N, 90.6250°W)
Time: 19:07:15
(UTC-05:00)

Hubble Space Telescope - Visible Passes

Search period start: 28 May 2015 00:00
Search period end: 07 June 2015 00:00
Orbit: 542 x 546 km, 28.5° (Epoch: 27 May)

Date Brightness Start Highest point End Pass type
(mag) Time Alt. Az. Time Alt. Az. Time Alt. Az.
01 Jun 3.2 04:53:52 10° S 04:54:28 10° SSE 04:55:10 10° SSE visible
02 Jun 3.0 04:43:53 10° S 04:45:39 13° SSE 04:47:28 10° SE visible
03 Jun 2.8 04:34:59 12° SSW 04:36:49 15° SSE 04:39:11 10° SE visible
04 Jun 2.6 04:26:35 14° SSW 04:28:00 17° SSE 04:30:42 10° SE visible
05 Jun 2.4 04:18:12 17° S 04:19:11 19° S 04:22:07 10° SE visible
06 Jun 2.3 04:09:49 20° S 04:10:22 20° S 04:13:28 10° SE visible
